FW9676 Weather Reports


Display with metric or nautical units.
time (UTC)temp
F
wind
direction
speed
MPH
gust
MPH
rain 1hr
in
rain 24hr
in
rain mn
in
humidity
%
barometer
mb
20260505084013 59 243 1.0 4.0 0.00 0.00 0.00 86 1014.5
20260505083512 59 212 1.0 6.0 0.00 0.00 0.00 86 1014.5
20260505083032 59 299 2.0 6.0 0.00 0.00 0.00 85 1014.6
20260505082518 59 288 2.0 6.0 0.00 0.00 0.00 85 1014.6
20260505082017 59 256 1.0 4.0 0.00 0.00 0.00 85 1014.6
20260505081532 59 221 1.0 6.0 0.00 0.00 0.00 85 1014.6
20260505081019 59 211 1.0 6.0 0.00 0.00 0.00 85 1014.6
20260505080514 59 0 0.0 6.0 0.00 0.00 0.00 86 1014.7
20260505080032 59 255 0.0 7.0 0.00 0.00 0.00 86 1014.7
20260505075514 59 277 2.0 7.0 0.00 0.00 0.00 86 1014.7
20260505075019 59 269 2.0 7.0 0.00 0.00 0.00 87 1014.8
20260505074531 59 260 2.0 6.0 0.00 0.00 0.00 87 1014.8
20260505074014 59 271 2.0 5.0 0.00 0.00 0.00 87 1014.9
20260505073518 59 261 1.0 5.0 0.00 0.00 0.00 87 1014.9
20260505073030 59 278 1.0 4.0 0.00 0.00 0.00 87 1014.9
20260505072514 59 273 2.0 7.0 0.00 0.00 0.00 87 1014.9
20260505072013 59 261 2.0 7.0 0.00 0.00 0.00 87 1015.0
20260505071534 59 250 2.0 6.0 0.00 0.00 0.00 86 1015.0
20260505071013 59 267 2.0 6.0 0.00 0.00 0.00 86 1015.0
20260505070519 59 0 2.0 6.0 0.00 0.00 0.00 86 1014.9
20260505070029 59 261 2.0 6.0 0.00 0.00 0.00 86 1014.9
20260505065512 59 261 1.0 6.0 0.00 0.00 0.00 85 1014.9
20260505065013 59 245 1.0 6.0 0.00 0.00 0.00 85 1014.8
20260505064530 59 250 2.0 6.0 0.00 0.00 0.00 85 1014.9
20260505064013 59 266 1.0 6.0 0.00 0.00 0.00 85 1014.9
20260505063513 59 266 2.0 6.0 0.00 0.00 0.00 85 1015.0
20260505063031 59 261 2.0 6.0 0.00 0.00 0.00 85 1014.9
20260505062514 59 257 2.0 4.0 0.00 0.00 0.00 85 1015.0
20260505062012 59 261 1.0 6.0 0.00 0.00 0.00 85 1014.9
20260505061534 59 269 1.0 6.0 0.00 0.00 0.00 85 1014.9
20260505061018 59 273 1.0 6.0 0.00 0.00 0.00 85 1014.9
20260505060513 59 266 1.0 6.0 0.00 0.00 0.00 85 1014.9
20260505060044 59 265 2.0 6.0 0.00 0.00 0.00 85 1014.9
20260505055518 59 263 1.0 4.0 0.00 0.00 0.00 85 1015.0
20260505055016 59 269 1.0 4.0 0.00 0.00 0.00 86 1015.0
20260505054529 59 225 2.0 4.0 0.00 0.00 0.00 87 1015.0
20260505054012 59 236 1.0 5.0 0.00 0.00 0.00 86 1015.1
20260505053513 59 226 2.0 7.0 0.00 0.00 0.00 87 1015.1
20260505053027 59 271 2.0 7.0 0.00 0.00 0.00 86 1015.0
20260505052509 59 255 1.0 4.0 0.00 0.00 0.00 86 1015.2
20260505052010 59 211 2.0 4.0 0.00 0.00 0.00 86 1015.1
20260505051529 59 226 0.0 4.0 0.00 0.00 0.00 86 1015.1
20260505051012 59 211 1.0 4.0 0.00 0.00 0.00 86 1015.2
20260505050513 59 260 0.0 4.0 0.00 0.00 0.00 86 1015.3
20260505041531 59 243 1.0 7.0 0.00 0.00 0.00 84 1015.2
20260505041015 59 217 2.0 5.0 0.00 0.00 0.00 84 1015.2
20260505040513 59 207 1.0 5.0 0.00 0.00 0.00 84 1015.1
20260505040030 59 248 1.0 6.0 0.00 0.00 0.00 84 1015.2
20260505035510 59 228 2.0 6.0 0.00 0.00 0.00 84 1015.1
20260505035015 59 258 1.0 4.0 0.00 0.00 0.00 84 1015.1
20260505034531 59 207 0.0 4.0 0.00 0.00 0.00 84 1015.2
20260505034013 59 0 1.0 5.0 0.00 0.00 0.00 84 1015.1
20260505033513 59 235 2.0 5.0 0.00 0.00 0.00 84 1015.1
20260505033028 59 213 2.0 5.0 0.00 0.00 0.00 84 1015.1
20260505032511 59 178 2.0 8.0 0.00 0.00 0.00 84 1015.0
20260505032010 59 219 2.0 9.0 0.00 0.00 0.00 84 1015.0
20260505031527 59 154 3.0 9.0 0.00 0.00 0.00 83 1014.9
20260505031012 59 184 3.0 7.0 0.00 0.00 0.00 83 1014.9
20260505030515 59 238 2.0 8.0 0.00 0.00 0.00 83 1014.8
20260505030032 59 213 3.0 8.0 0.00 0.00 0.00 82 1014.7
20260505025518 60 202 2.0 9.0 0.00 0.00 0.00 82 1014.6
20260505025012 60 198 2.0 9.0 0.00 0.00 0.00 83 1014.6
20260505024531 60 238 2.0 9.0 0.00 0.00 0.00 83 1014.7
20260505024009 60 226 3.0 9.0 0.00 0.00 0.00 82 1014.7
20260505023512 60 208 3.0 9.0 0.00 0.00 0.00 83 1014.7
20260505023029 60 202 2.0 9.0 0.00 0.00 0.00 82 1014.7
20260505022510 60 257 3.0 8.0 0.00 0.00 0.00 81 1014.7
20260505022017 60 249 2.0 8.0 0.00 0.00 0.00 81 1014.8
20260505021531 60 248 3.0 9.0 0.00 0.00 0.00 81 1014.7
20260505021010 60 218 3.0 11.0 0.00 0.00 0.00 81 1014.8
20260505020513 60 194 4.0 12.0 0.00 0.00 0.00 82 1014.7
20260505020028 61 209 5.0 14.0 0.00 0.00 0.00 81 1014.7
20260505015513 61 265 4.0 14.0 0.00 0.00 0.00 81 1014.7
20260505015013 62 208 4.0 9.0 0.00 0.00 0.00 81 1014.6
20260505014530 62 208 3.0 11.0 0.00 0.00 0.00 80 1014.8
20260505014015 62 252 2.0 13.0 0.00 0.00 0.00 79 1014.8
20260505013512 62 215 6.0 13.0 0.00 0.00 0.00 77 1014.7
20260505013041 62 241 4.0 12.0 0.00 0.00 0.00 77 1014.7
20260505012512 63 236 4.0 11.0 0.00 0.00 0.00 81 1014.7
20260505012010 63 265 4.0 14.0 0.00 0.00 0.00 80 1014.6
20260505011530 63 257 4.0 14.0 0.00 0.00 0.00 79 1014.6
20260505011009 63 309 4.0 10.0 0.00 0.00 0.00 80 1014.7
20260505010512 62 272 4.0 12.0 0.00 0.00 0.00 79 1014.7
20260505010033 62 283 5.0 12.0 0.00 0.00 0.00 78 1014.8
20260505005514 62 254 3.0 11.0 0.00 0.00 0.00 77 1014.8
20260505005010 63 216 4.0 11.0 0.00 0.00 0.00 78 1014.8
20260505004528 63 257 4.0 11.0 0.00 0.00 0.00 77 1014.9
20260505004010 63 202 3.0 11.0 0.00 0.00 0.00 76 1014.9
20260505003516 63 228 4.0 11.0 0.00 0.00 0.00 75 1015.0
20260505003033 63 219 4.0 9.0 0.00 0.00 0.00 76 1015.0
20260505002512 63 240 4.0 11.0 0.00 0.00 0.00 76 1015.0
20260505002012 64 306 5.0 11.0 0.00 0.00 0.00 75 1015.2
20260505001530 63 273 4.0 11.0 0.00 0.00 0.00 76 1015.2
20260505001009 63 273 4.0 10.0 0.00 0.00 0.00 77 1015.3
20260505000510 64 243 4.0 10.0 0.00 0.00 0.00 77 1015.3
20260505000040 63 267 3.0 14.0 0.00 0.00 0.00 77 1015.2
20260504235510 64 211 5.0 14.0 0.00 0.00 0.00 77 1015.2
20260504235012 64 252 5.0 14.0 0.00 0.00 0.00 76 1015.1
20260504234534 64 281 5.0 13.0 0.00 0.00 0.00 75 1015.0
20260504234009 64 216 6.0 14.0 0.00 0.00 0.00 74 1015.0
20260504233510 64 268 6.0 16.0 0.00 0.00 0.00 74 1014.9
20260504233028 64 228 5.0 16.0 0.00 0.00 0.00 73 1014.9
20260504232511 65 223 7.0 16.0 0.00 0.00 0.00 72 1014.7
20260504232010 66 218 5.0 15.0 0.00 0.00 0.00 71 1014.7
20260504231528 66 227 7.0 16.0 0.00 0.00 0.00 71 1014.6
20260504231012 65 304 6.0 16.0 0.00 0.00 0.00 72 1014.6
20260504230513 65 248 5.0 17.0 0.00 0.00 0.00 72 1014.6
20260504230030 65 252 8.0 17.0 0.00 0.00 0.00 72 1014.6
20260504225510 65 248 11.0 17.0 0.00 0.00 0.00 71 1014.9
20260504225017 65 277 7.0 16.0 0.00 0.00 0.00 70 1014.8
20260504224530 66 246 9.0 16.0 0.00 0.00 0.00 69 1014.9
20260504224012 66 207 6.0 15.0 0.00 0.00 0.00 71 1015.0
20260504223509 66 279 7.0 16.0 0.00 0.00 0.00 71 1014.9
20260504223029 66 280 7.0 16.0 0.00 0.00 0.00 73 1015.2
20260504222512 66 184 7.0 15.0 0.00 0.00 0.00 73 1015.2
20260504222016 66 272 6.0 15.0 0.00 0.00 0.00 74 1015.2
20260504221529 66 261 7.0 15.0 0.00 0.00 0.00 74 1015.2
20260504221010 66 257 7.0 16.0 0.00 0.00 0.00 73 1015.4
20260504220512 66 300 5.0 16.0 0.00 0.00 0.00 73 1015.4
20260504220039 66 258 7.0 19.0 0.00 0.00 0.00 74 1015.5
20260504215514 66 212 7.0 19.0 0.00 0.00 0.00 74 1015.6
20260504215012 65 249 8.0 18.0 0.00 0.00 0.00 75 1015.5
20260504214535 65 227 7.0 15.0 0.00 0.00 0.00 74 1015.7
20260504214017 65 213 7.0 15.0 0.00 0.00 0.00 75 1015.8
20260504213511 65 288 8.0 15.0 0.00 0.00 0.00 75 1015.9
20260504213035 65 215 7.0 15.0 0.00 0.00 0.00 74 1016.0
20260504212514 65 217 6.0 19.0 0.00 0.00 0.00 75 1016.0
20260504212017 66 242 6.0 19.0 0.00 0.00 0.00 75 1015.9
20260504211535 66 240 7.0 19.0 0.00 0.00 0.00 73 1016.1
20260504211013 66 208 5.0 15.0 0.00 0.00 0.00 73 1016.1
20260504210510 66 277 6.0 16.0 0.00 0.00 0.00 74 1016.1
20260504210030 66 209 6.0 16.0 0.00 0.00 0.00 74 1016.0
20260504205514 66 236 6.0 16.0 0.00 0.00 0.00 72 1016.0
20260504205011 66 236 6.0 17.0 0.00 0.00 0.00 73 1016.1
20260504204530 66 263 5.0 17.0 0.00 0.00 0.00 73 1016.0
20260504204011 66 259 6.0 14.0 0.00 0.00 0.00 73 1015.9
20260504203513 66 241 6.0 14.0 0.00 0.00 0.00 74 1016.0
20260504203029 66 269 4.0 15.0 0.00 0.00 0.00 74 1016.0
20260504202513 66 259 7.0 15.0 0.00 0.00 0.00 74 1016.0
20260504202009 66 255 6.0 12.0 0.00 0.00 0.00 72 1016.0
20260504201532 66 194 4.0 12.0 0.00 0.00 0.00 73 1015.9
20260504201011 66 222 5.0 13.0 0.00 0.00 0.00 74 1016.0
20260504200512 66 232 5.0 13.0 0.00 0.00 0.00 73 1016.1
20260504200030 66 234 6.0 13.0 0.00 0.00 0.00 73 1016.2
20260504195512 66 263 5.0 12.0 0.00 0.00 0.00 72 1016.2
20260504195012 66 265 6.0 14.0 0.00 0.00 0.00 72 1016.1
20260504194532 66 263 5.0 14.0 0.00 0.00 0.00 72 1016.0
20260504194010 67 252 4.0 13.0 0.00 0.00 0.00 70 1016.2
20260504193511 66 218 3.0 13.0 0.00 0.00 0.00 72 1016.1
20260504193028 66 254 5.0 13.0 0.00 0.00 0.00 72 1016.2
20260504192509 66 286 4.0 13.0 0.00 0.00 0.00 72 1016.3
20260504192014 66 221 6.0 12.0 0.00 0.00 0.00 71 1016.3
20260504191530 66 230 7.0 12.0 0.00 0.00 0.00 71 1016.2
20260504191010 66 227 4.0 11.0 0.00 0.00 0.00 71 1016.2
20260504190513 66 193 5.0 11.0 0.00 0.00 0.00 70 1016.2
20260504190032 65 267 5.0 11.0 0.00 0.00 0.00 72 1016.1
20260504185515 65 227 5.0 10.0 0.00 0.00 0.00 71 1016.2
20260504185017 65 245 4.0 10.0 0.00 0.00 0.00 71 1016.3
20260504184535 65 233 4.0 10.0 0.00 0.00 0.00 71 1016.3
20260504184012 65 257 4.0 10.0 0.00 0.00 0.00 71 1016.4
20260504183516 65 193 5.0 12.0 0.00 0.00 0.00 73 1016.4
20260504183030 65 253 5.0 14.0 0.00 0.00 0.00 73 1016.3
20260504182510 65 296 5.0 15.0 0.00 0.00 0.00 72 1016.5
20260504182011 65 224 7.0 15.0 0.00 0.00 0.00 72 1016.4
20260504181536 65 286 6.0 15.0 0.00 0.00 0.00 73 1016.6
20260504181015 65 248 4.0 9.0 0.00 0.00 0.00 74 1016.4
20260504180513 64 200 4.0 9.0 0.00 0.00 0.00 74 1016.5
20260504180030 64 216 4.0 11.0 0.00 0.00 0.00 75 1016.4
20260504175512 64 209 4.0 11.0 0.00 0.00 0.00 74 1016.5
20260504175010 64 216 6.0 13.0 0.00 0.00 0.00 73 1016.5
20260504174530 64 223 5.0 13.0 0.00 0.00 0.00 73 1016.5
20260504174011 64 216 4.0 13.0 0.00 0.00 0.00 74 1016.4
20260504173511 64 275 5.0 12.0 0.00 0.00 0.00 75 1016.4
20260504173033 64 251 5.0 12.0 0.00 0.00 0.00 74 1016.3
20260504172512 64 215 3.0 15.0 0.00 0.00 0.00 74 1016.3
20260504172014 64 263 7.0 15.0 0.00 0.00 0.00 73 1016.2
20260504171534 64 215 6.0 15.0 0.00 0.00 0.00 73 1016.1
20260504171014 64 242 5.0 10.0 0.00 0.00 0.00 73 1016.1
20260504170514 64 271 4.0 10.0 0.00 0.00 0.00 73 1016.0
20260504151011 60 258 4.0 10.0 0.00 0.00 0.00 78 1015.3
20260504150513 59 272 4.0 10.0 0.00 0.00 0.00 77 1015.4
20260504141013 58 275 7.0 12.0 0.00 0.00 0.00 83 1015.1
20260504140510 58 279 5.0 10.0 0.00 0.00 0.00 82 1015.0
20260504130515 58 240 2.0 7.0 0.00 0.00 0.00 81 1015.1
20260504110510 58 275 2.0 8.0 0.00 0.00 0.00 80 1014.6
20260504100514 58 242 3.0 8.0 0.00 0.00 0.00 80 1014.5